Vorticity
8 6 4 5 3 6 8 9 11 12 13 9 8 7 6 6 6 5 5 10 9 7 6 7 3 1 6 10 2 4 9 7 8 9 6 8 6 4 3 4 3 5 5
4 4 4 4 10 10 10 11 11 12 11 8 8 9 7 7 6 8 7 8 11 4 4 7 7 4 10 5 4 4 12 1 9 8 8 4 6 8 5 3 5 4 3
7 4 4 9 11 11 8 8 12 16 15 14 15 17 8 7 6 6 6 6 8 12 11 1 3 9 8 6 2 5 5 15 7 6 7 7 5 5 4 4 5 4 4
6 7 2 11 13 8 14 10 8 9 9 12 13 13 17 18 16 11 5 5 8 5 8 8 7 0 10 7 4 7 9 1 11 7 7 4 7 5 3 5 5 5 4
9 9 8 14 8 13 9 8 6 6 10 7 5 4 5 7 14 13 13 10 2 5 2 3 7 9 6 8 9 14 16 9 4 6 5 6 2 4 8 5 2 3 4
8 5 12 12 11 15 5 7 -2 2 2 7 7 10 7 1 1 1 6 4 17 6 5 3 9 9 6 10 12 6 2 -5 5 8 12 5 -8 -12 3 9 4 4 4
7 3 13 12 12 10 5 7 5 6 5 7 4 9 12 11 14 -19 13 36 18 7 5 7 10 5 8 9 5 -2 -14 16 -6 1 6 8 11 6 6 4 4 3 4
6 7 15 10 9 12 6 3 4 4 3 6 5 8 1 5 2 7 28 36 21 3 8 3 6 5 3 -0 0 2 3 15 5 6 1 -1 3 4 5 4 5 8 6
8 11 13 9 8 5 6 4 9 8 8 4 8 8 1 4 12 -2 34 -3 -24 -12 8 13 5 -6 3 10 12 -6 24 3 3 1 -2 8 4 6 4 5 2 4 4
5 7 13 14 8 9 9 12 5 9 24 17 8 8 4 6 17 8 8 7 64 -10 22 22 7 4 5 11 8 7 8 11 5 6 4 5 5 5 7 5 7 11 6
6 5 8 13 13 8 7 10 8 10 12 5 6 9 8 17 28 7 18 21 -17 4 -2 8 11 4 4 4 -3 8 32 -0 5 2 5 4 5 5 3 5 5 2 5
7 6 4 9 19 11 0 11 8 17 9 6 12 8 17 34 26 15 42 42 14 -1 17 -3 6 16 6 7 19 27 4 3 1 5 3 4 7 7 6 5 3 5 7
7 5 4 6 13 12 8 1 8 11 3 6 18 8 20 15 36 21 16 -9 1 -2 12 5 12 -1 6 23 25 12 0 5 3 1 2 3 4 2 1 9 6 6 5
7 5 3 6 15 14 10 4 5 5 9 4 17 25 -5 22 13 5 -8 21 -3 3 -7 1 10 20 -7 25 9 4 2 0 7 2 3 1 3 3 6 3 1 6 7
7 4 4 10 18 15 10 7 10 14 7 6 13 20 28 51 5 26 -21 30 5 11 6 12 12 12 -4 17 9 2 1 3 -1 1 2 2 3 -0 4 3 8 7 10
8 4 4 12 18 12 14 8 10 10 4 8 17 0 23 16 -1 26 10 15 -16 6 7 4 9 4 17 12 -0 3 3 1 1 8 1 1 3 1 1 -3 8 8 12
7 4 6 12 17 9 9 6 6 7 8 7 14 4 14 -2 14 19 25 25 8 -6 6 -10 6 25 10 9 6 1 3 3 -1 0 2 3 -1 3 1 8 9 11 10
7 5 7 16 14 8 7 10 9 8 8 5 13 8 18 21 14 25 2 5 4 18 5 -3 8 12 8 -4 5 6 4 3 5 3 2 -1 4 -1 0 12 12 9 12
6 7 9 16 14 9 10 13 8 8 4 8 10 14 6 12 19 0 30 6 1 13 1 11 14 3 5 5 5 2 3 6 9 8 -0 3 0 4 11 17 9 11 13
9 9 13 6 5 15 11 9 11 13 9 10 7 14 5 12 6 25 -12 -18 2 24 8 6 2 4 10 9 4 8 12 12 18 20 7 -0 5 11 15 9 9 9 11
8 13 8 7 15 10 8 6 7 20 22 11 9 18 8 7 19 -16 4 2 20 12 15 2 -1 7 7 12 13 0 16 17 16 31 8 16 18 18 9 8 10 6 5
7 10 6 11 10 7 5 2 4 21 23 12 17 18 12 7 10 8 4 6 20 4 22 4 7 1 -4 6 6 19 7 4 16 5 20 21 15 9 8 10 7 5 6
8 8 9 10 7 6 4 5 12 23 18 20 14 15 11 5 -0 10 11 10 19 2 17 10 11 18 -3 24 24 1 -3 11 18 20 16 14 10 8 7 9 5 7 7
6 7 9 8 8 8 5 7 3 1 23 21 18 12 3 -2 11 10 14 1 15 17 -20 -6 1 3 -8 -8 2 16 17 29 24 12 12 10 9 6 7 8 8 7 6
4 7 8 7 10 8 7 10 12 15 -1 23 24 6 3 34 21 23 12 -8 21 16 7 3 -12 -12 19 -10 6 13 13 22 11 14 7 8 8 10 12 3 -0 3 7
6 9 9 9 7 7 6 8 10 6 38 19 2 -1 10 9 31 9 15 11 2 10 6 -17 1 -0 -4 -0 8 20 24 15 11 14 13 12 6 -0 -2 2 3 7 9
Height
5825 5823 5822 5821 5819 5817 5816 5816 5814 5814 5813 5812 5812 5812 5812 5812 5814 5815 5817 5821 5822 5824 5827 5829 5831 5833 5835 5837 5840 5842 5843 5844 5844 5844 5845 5845 5846 5848 5848 5849 5850 5849 5849
5821 5819 5818 5815 5814 5812 5809 5809 5809 5807 5807 5806 5806 5805 5805 5807 5807 5809 5810 5814 5817 5819 5821 5824 5827 5830 5832 5834 5837 5839 5841 5841 5842 5843 5844 5844 5845 5845 5847 5847 5848 5847 5848
5817 5816 5813 5811 5809 5807 5804 5803 5804 5803 5803 5802 5801 5801 5800 5801 5801 5802 5805 5808 5812 5815 5818 5820 5822 5825 5828 5830 5833 5836 5837 5838 5840 5842 5842 5842 5843 5844 5845 5845 5846 5844 5845
5813 5811 5808 5805 5804 5802 5800 5799 5799 5799 5798 5797 5796 5797 5797 5798 5799 5801 5801 5801 5805 5809 5813 5817 5818 5821 5824 5827 5828 5830 5834 5837 5838 5839 5841 5841 5842 5842 5842 5844 5844 5844 5844
5809 5806 5804 5800 5799 5798 5797 5796 5795 5794 5794 5794 5794 5792 5791 5792 5793 5794 5795 5798 5800 5803 5807 5812 5814 5818 5820 5822 5824 5828 5832 5834 5835 5836 5838 5839 5840 5841 5841 5842 5842 5842 5842
5805 5802 5799 5796 5794 5793 5793 5791 5791 5791 5789 5789 5789 5787 5785 5786 5787 5789 5790 5790 5792 5797 5803 5806 5810 5813 5816 5819 5823 5826 5827 5828 5831 5833 5835 5836 5837 5839 5839 5840 5840 5840 5841
5798 5795 5792 5791 5789 5788 5788 5787 5786 5785 5785 5784 5784 5783 5784 5783 5783 5785 5787 5783 5782 5790 5797 5801 5804 5809 5811 5816 5821 5822 5823 5824 5827 5827 5830 5832 5835 5837 5837 5838 5838 5838 5840
5792 5791 5787 5786 5785 5784 5783 5782 5780 5780 5779 5777 5779 5779 5778 5778 5776 5777 5776 5782 5780 5782 5789 5795 5800 5804 5808 5812 5817 5818 5818 5820 5822 5824 5828 5830 5833 5835 5835 5835 5836 5837 5838
5787 5786 5783 5781 5780 5780 5779 5777 5774 5773 5772 5771 5772 5771 5770 5771 5771 5773 5774 5778 5778 5778 5784 5789 5795 5799 5804 5808 5814 5813 5812 5816 5819 5821 5825 5829 5832 5832 5834 5833 5833 5834 5834
5783 5781 5778 5776 5775 5774 5773 5771 5768 5766 5764 5765 5765 5765 5763 5762 5761 5764 5768 5768 5767 5776 5779 5785 5789 5794 5797 5804 5810 5810 5811 5812 5816 5820 5825 5828 5829 5830 5831 5831 5831 5831 5831
5778 5776 5773 5772 5770 5769 5767 5765 5763 5760 5759 5759 5759 5757 5755 5754 5756 5756 5759 5759 5763 5771 5776 5782 5785 5789 5792 5800 5804 5805 5807 5811 5813 5819 5823 5826 5827 5828 5829 5829 5829 5829 5829
5774 5770 5767 5766 5766 5765 5762 5760 5757 5755 5754 5752 5751 5749 5745 5744 5747 5751 5752 5756 5764 5767 5772 5778 5781 5784 5788 5795 5798 5797 5802 5807 5812 5817 5820 5823 5825 5825 5826 5826 5826 5826 5826
5770 5766 5761 5760 5759 5759 5758 5755 5753 5751 5748 5746 5743 5742 5739 5738 5741 5744 5747 5752 5759 5764 5770 5775 5778 5782 5784 5790 5790 5794 5800 5806 5810 5814 5818 5819 5821 5822 5823 5822 5821 5822 5822
5765 5763 5757 5755 5753 5752 5752 5750 5748 5747 5744 5741 5738 5735 5734 5735 5738 5741 5746 5749 5757 5762 5766 5771 5774 5777 5782 5788 5787 5791 5799 5804 5808 5811 5813 5816 5818 5819 5818 5818 5818 5818 5818
5762 5759 5754 5750 5748 5746 5746 5745 5743 5742 5739 5736 5734 5731 5730 5731 5735 5739 5742 5745 5751 5759 5764 5767 5770 5775 5779 5787 5787 5790 5796 5801 5804 5806 5809 5812 5813 5814 5814 5814 5814 5814 5812
5755 5753 5748 5744 5742 5741 5739 5738 5737 5736 5733 5731 5730 5730 5728 5731 5733 5735 5740 5744 5749 5755 5760 5763 5767 5771 5775 5785 5785 5788 5792 5796 5799 5802 5805 5807 5809 5809 5809 5809 5809 5808 5807
5747 5744 5740 5738 5737 5735 5733 5732 5732 5731 5729 5727 5725 5726 5725 5727 5729 5731 5734 5739 5746 5751 5755 5759 5764 5767 5771 5779 5782 5783 5788 5792 5793 5796 5798 5801 5802 5803 5804 5804 5803 5802 5801
5742 5739 5735 5733 5731 5729 5728 5727 5726 5725 5724 5723 5721 5722 5723 5724 5726 5729 5734 5738 5743 5748 5752 5756 5762 5764 5768 5774 5778 5780 5784 5786 5787 5790 5792 5795 5796 5797 5798 5797 5797 5797 5796
5738 5733 5730 5729 5727 5724 5722 5721 5720 5720 5719 5718 5717 5718 5721 5722 5724 5727 5731 5736 5740 5744 5748 5752 5757 5760 5763 5770 5773 5775 5776 5779 5780 5784 5787 5788 5789 5791 5790 5791 5791 5791 5792
5732 5727 5725 5724 5723 5720 5718 5716 5715 5713 5712 5712 5712 5713 5717 5719 5720 5723 5727 5731 5735 5739 5743 5748 5753 5756 5758 5764 5767 5769 5770 5773 5775 5776 5779 5780 5783 5784 5785 5785 5786 5787 5787
5725 5722 5721 5720 5719 5716 5714 5712 5710 5706 5704 5704 5706 5707 5711 5714 5716 5717 5723 5727 5731 5735 5739 5743 5748 5750 5754 5758 5760 5762 5766 5768 5769 5769 5772 5776 5777 5778 5779 5780 5781 5782 5783
5719 5718 5717 5717 5715 5712 5709 5707 5705 5701 5698 5699 5700 5702 5705 5709 5712 5714 5718 5720 5726 5729 5733 5737 5742 5745 5749 5753 5755 5757 5759 5761 5762 5763 5767 5768 5770 5771 5773 5775 5776 5777 5777
5714 5713 5713 5713 5710 5708 5705 5703 5700 5697 5693 5694 5695 5698 5701 5703 5707 5709 5712 5715 5721 5724 5728 5732 5736 5740 5744 5746 5748 5751 5753 5755 5754 5757 5760 5762 5763 5765 5768 5769 5770 5772 5772
5708 5709 5709 5708 5706 5703 5701 5698 5697 5694 5691 5690 5692 5695 5697 5698 5700 5703 5707 5711 5714 5718 5722 5727 5731 5735 5738 5740 5742 5744 5745 5747 5749 5752 5754 5755 5758 5760 5763 5764 5766 5766 5765
5701 5703 5703 5703 5701 5699 5697 5695 5692 5689 5686 5686 5687 5690 5692 5693 5694 5698 5701 5706 5709 5712 5716 5722 5725 5728 5731 5733 5734 5736 5738 5740 5744 5745 5747 5750 5752 5755 5758 5760 5760 5760 5761
5695 5697 5698 5698 5697 5695 5693 5691 5689 5686 5680 5679 5681 5683 5683 5682 5687 5691 5694 5699 5703 5706 5710 5715 5719 5722 5723 5725 5727 5729 5732 5736 5739 5741 5744 5747 5749 5752 5753 5755 5755 5755 5755